Saskatoon, Saskatchewan

1:52 AM CST on June 24, 2017 (GMT -0600)
Saskatoon

Weather History for CYXE - November, 2012

Change the Weather History Date:

Sunday, November 18, 2012

  Actual Average Record
Temperature  
Mean Temperature 26 °F -  
Max Temperature 41 °F 20 °F 44 °F (2005)
Min Temperature 12 °F 3 °F -5 °F (2011)
Degree Days  
Heating Degree Days 38    
Moisture  
Dew Point 24 °F    
Average Humidity 84    
Maximum Humidity 93    
Minimum Humidity 70    
Precipitation  
Precipitation 0.00 in 0.02 in - ()
Sea Level Pressure  
Sea Level Pressure 29.75 in    
Wind  
Wind Speed 10 mph ()    
Max Wind Speed 25 mph    
Max Gust Speed 32 mph    
Visibility 14.9 miles    
Events      
Averages and records for this station are not official NWS values.
T = Trace of Precipitation, MM = Missing Value Source: Averaged Metar Reports

Daily Weather History Graph

Daily Weather History Graph

Search for Another Location

Airport or City:

Trip Planner

Search our weather history database for the weather conditions in past years. The results will help you decide how hot, cold, wet, or windy it might be!

Date:

Astronomy

Nov. 18, 2012 Rise Set
Actual Time 8:33 AM CST 5:10 PM CST
Civil Twilight 7:55 AM CST 5:48 PM CST
Nautical Twilight 7:13 AM CST 6:29 PM CST
Astronomical Twilight 6:33 AM CST 7:10 PM CST
Moon 12:53 PM CST (11/18) 10:44 PM CST (11/18)
Length of Visible Light 9h 52m
Length of Day
8h 36m
Waxing Crescent, 30% of the Moon is Illuminated
Nov 18
Waxing Crescent
Nov 20
First Quarter
Nov 28
Full
Dec 6
Last Quarter
Dec 13
New

Hourly Weather History & Observations

Time (CST) Temp. Windchill Dew Point Humidity Pressure Visibility Wind Dir Wind Speed Gust Speed Precip Events Conditions
12:00 AM 12.2 °F 1.7 °F 10.4 °F 92% 29.88 in 15.0 mi East 6.9 mph - N/A   Clear
1:00 AM 14.0 °F 2.0 °F 12.2 °F 93% 29.85 in 15.0 mi East 9.2 mph - N/A   Clear
2:00 AM 17.6 °F 8.2 °F 15.8 °F 93% 29.82 in 15.0 mi ESE 6.9 mph - N/A   Clear
3:00 AM 21.2 °F 10.9 °F 19.4 °F 93% 29.80 in 15.0 mi SE 9.2 mph - N/A   Clear
5:00 AM 24.8 °F 14.0 °F 23.0 °F 93% 29.74 in 15.0 mi SE 11.5 mph - N/A   Clear
6:00 AM 24.8 °F 14.6 °F 23.0 °F 93% 29.72 in 15.0 mi SE 10.4 mph - N/A   Clear
7:00 AM 26.6 °F 15.2 °F 24.8 °F 93% 29.70 in 15.0 mi SE 13.8 mph - N/A   Scattered Clouds
8:00 AM 26.6 °F 17.5 °F 23.0 °F 86% 29.70 in 15.0 mi SE 9.2 mph - N/A   Scattered Clouds
9:00 AM 26.6 °F 20.0 °F 23.0 °F 86% 29.68 in 15.0 mi ESE 5.8 mph - N/A   Mostly Cloudy
10:00 AM 30.2 °F 23.4 °F 26.6 °F 86% 29.66 in 15.0 mi SSE 6.9 mph - N/A   Mostly Cloudy
11:00 AM 35.6 °F 25.5 °F 28.4 °F 75% 29.65 in 15.0 mi SSE 17.3 mph 24.2 mph N/A   Mostly Cloudy
12:00 PM 37.4 °F 29.3 °F 30.2 °F 75% 29.65 in 15.0 mi South 12.7 mph 18.4 mph N/A   Mostly Cloudy
1:00 PM 37.4 °F 29.3 °F 30.2 °F 75% 29.65 in 15.0 mi South 12.7 mph 19.6 mph N/A   Mostly Cloudy
2:00 PM 37.4 °F 29.3 °F 30.2 °F 75% 29.63 in 15.0 mi South 12.7 mph 19.6 mph N/A   Mostly Cloudy
3:00 PM 39.2 °F 30.8 °F 32.0 °F 75% 29.63 in 15.0 mi SSW 15.0 mph - N/A   Mostly Cloudy
4:00 PM 41.0 °F 32.2 °F 32.0 °F 70% 29.65 in 15.0 mi SW 18.4 mph - N/A   Overcast
5:00 PM 37.4 °F 27.2 °F 30.2 °F 75% 29.68 in 15.0 mi WSW 19.6 mph 26.5 mph N/A   Overcast
6:00 PM 35.6 °F 27.1 °F 30.2 °F 81% 29.72 in 15.0 mi WSW 12.7 mph 20.7 mph N/A   Mostly Cloudy
7:00 PM 32.0 °F 18.6 °F 26.6 °F 80% 29.80 in 15.0 mi West 25.3 mph 32.2 mph N/A   Mostly Cloudy
8:00 PM 30.2 °F 20.8 °F 24.8 °F 80% 29.84 in 15.0 mi West 11.5 mph - N/A   Scattered Clouds
9:00 PM 26.6 °F 15.7 °F 23.0 °F 86% 29.89 in 15.0 mi WSW 12.7 mph - N/A   Scattered Clouds
10:00 PM 26.6 °F 15.7 °F 23.0 °F 86% 29.91 in 15.0 mi WSW 12.7 mph - N/A   Mostly Cloudy
11:00 PM 23.0 °F 12.4 °F 21.2 °F 93% 29.94 in 12.0 mi WSW 10.4 mph - N/A   Mostly Cloudy